Weather Roundup
Issued by NWS Chicago, IL

Home | Current Version | Previous Version | Text Only | Print | Product List | Glossary On
Versions: 1 2 3 4 5 6 7 8 9 10 11 12 13 14 15 16 17 18 19 20 21 22 23 24 25 26 27 28 29 30 31 32 33 34 35 36 37 38 39 40 41 42 43 44 45 46 47 48 49 50
000
NZUS59 KLOT 221110
HRRLOT

CHICAGO AREA WEATHER ROUNDUP
NATIONAL WEATHER SERVICE CHICAGO/ROMEOVILLE IL
500 AM CST MON DEC 22 2014

NOTE: "FAIR" INDICATES FEW OR NO CLOUDS BELOW 12,000 FEET WITH NO
SIGNIFICANT WEATHER AND/OR OBSTRUCTIONS TO VISIBILITY.

* THESE STATIONS ARE NOT UNDER NWS QUALITY CONTROL. THEY ALSO MAY NOT
  REPORT WEATHER SUCH AS PRECIPITATION OR FOG.

ILZ005-006-012>014-019>023-221200-
NORTHEAST ILLINOIS

CITY           SKY/WX    TMP DP  RH WIND       PRES   REMARKS
OHARE          CLOUDY    31  27  85 S10       29.95F WCI  22
MIDWAY         MOCLDY    33  28  81 SE6       29.96F WCI  28
AURORA         CLOUDY    33  27  78 SE10      29.94F HAZE    WCI  25
LANSING*       CLOUDY    31  27  85 SE6       29.97S WCI  25
JOLIET*        CLOUDY    31  28  87 SE6       29.95F FOG     WCI  25
WAUKEGAN       PTCLDY    31  27  85 SE8       29.94F FOG     WCI  23
DUPAGE AIRPORT CLOUDY    32  27  81 S10       29.93F WCI  24
WHEELING       CLOUDY    31  27  85 S6        29.97F WCI  25
KANKAKEE*      CLOUDY    31  29  89 SE8       29.96F WCI  24
MORRIS*        CLOUDY    33  31  91 SE8       29.93F WCI  26
LEWIS AIRPORT* CLOUDY    31  28  89 S7        29.96S FOG     WCI  24
NORTHERLY IS     N/A     32  27  82 S10         N/A  WCI  24
$$

WIZ051-052-058>065-066-070>072-221200-
SOUTHEAST WISCONSIN

CITY           SKY/WX    TMP DP  RH WIND       PRES   REMARKS
MILWAUKEE      MOCLDY    34  28  79 S7        29.95F WCI  28
KENOSHA*       CLOUDY    32  28  85 SE7       29.95S FOG     WCI  26
RACINE*        MOCLDY    34  29  82 S9        29.96F WCI  27
BURLINGTON     CLOUDY    31  27  85 SE8       29.93S WCI  23
WEST BEND      CLOUDY    32  28  86 SE5       29.92F WCI  27
$$

INZ001>003-010>013-019-020-221200-
NORTHWEST INDIANA

CITY           SKY/WX    TMP DP  RH WIND       PRES   REMARKS
GARY*          CLOUDY    32  25  74 SE9       29.98F HAZE    WCI  24
MICHIGAN CITY* NOT AVBL
RENSSELAER*    NOT AVBL
VALPARAISO     MOCLDY    28  25  88 E6        29.98F FOG     WCI  22
$$

LMZ740>746-221200-
SOUTHERN LAKE MICHIGAN

STATION/POSITION TIME  SKY/WX   TEMP WIND        PRES    VSBY
                                AIR  DIR/SP/G
                 (UTC)          (F)  (DEG/KT/KT) (MB)    (MI)
HARRISON CRIB    1100            33  160/ 16/ 20   N/A
BURNHAM HARBOR   1100            32  160/ 13       N/A
CALUMET HARBOR   1100            31  160/  7/ 10 1013.7S
BURNS HARBOR     NOT AVBL
MICHIGAN CITY    NOT AVBL
$$

ABBREVIATIONS USED IN REMARKS
   TC - TEMPERATURE IN CELSIUS
  WCI - WIND CHILL INDEX
   HX - HEAT INDEX
  VSB - VISIBILITY
$$


USA.gov is the U.S. government's official web portal to all federal, state and local government web resources and services.